HORS 3 (RS81S)

Last updated on Fri May 09 2025 00:03:04 GMT+0000 (Coordinated Universal Time)

1 61753U 24199U 25128.55589564 .00017456 00000+0 55019-3 0 9997 2 61753 97.3590 357.4611 0009057 310.4633 49.5819 15.32918096 75197
UTC large
Height (km)
Speed (km/s)
/
Latitude / Longitude
Inclination (degrees)
Orbital Period (minutes)
Azimuth
Elevation
Range (km)
Doppler Factor

Next 0 passes for location: London (51.5072 / 0.1276)

Sorry there are no passes over London.